DW5624 Weather Reports


time (UTC)temp
C
wind
direction
speed
KPH
gust
KPH
rain 1hr
cm
rain 24hr
cm
rain mn
cm
humidity
%
barometer
mb
20260505151403 26 174 11.3 20.9 0.00 0.00 0.00 85 1007.6
20260505150904 26 174 11.3 22.5 0.00 0.00 0.00 85 1007.6
20260505124906 23 164 6.4 11.3 0.00 0.00 0.00 92 1007.5
20260505124406 23 164 6.4 11.3 0.00 0.00 0.00 92 1007.5
20260505123906 23 155 6.4 9.7 0.00 0.00 0.00 92 1007.2
20260505122906 23 133 4.8 12.9 0.00 0.00 0.00 92 1007.1
20260505122405 23 130 4.8 11.3 0.00 0.00 0.00 92 1006.9
20260505120906 23 142 4.8 11.3 0.00 0.00 0.00 92 1007.2
20260505115906 22 125 4.8 11.3 0.00 0.00 0.00 92 1007.4
20260505114905 22 141 4.8 11.3 0.00 0.00 0.00 92 1007.1
20260505113906 22 157 3.2 8.0 0.00 0.00 0.00 92 1007.1
20260505100905 22 164 4.8 14.5 0.00 0.00 0.00 91 1007.1
20260505095405 22 162 4.8 12.9 0.00 0.00 0.00 91 1007.0
20260505094405 22 115 6.4 11.3 0.00 0.00 0.00 91 1007.1
20260505093905 22 155 4.8 9.7 0.00 0.00 0.00 91 1007.3
20260505093405 22 156 3.2 8.0 0.00 0.00 0.00 91 1007.4
20260505091405 22 143 6.4 9.7 0.00 0.00 0.00 91 1007.4
20260505090905 22 159 3.2 9.7 0.00 0.00 0.00 91 1007.4
20260505090405 22 160 3.2 11.3 0.00 0.00 0.00 91 1007.4
20260505084906 22 114 4.8 12.9 0.00 0.00 0.00 91 1007.3
20260505083905 22 109 3.2 9.7 0.00 0.00 0.00 91 1007.3
20260505081905 22 156 3.2 8.0 0.00 0.00 0.00 90 1007.6
20260505081405 22 154 3.2 8.0 0.00 0.00 0.00 90 1007.6
20260505080406 22 166 3.2 8.0 0.00 0.00 0.00 91 1007.7
20260505075905 22 137 4.8 8.0 0.00 0.00 0.00 91 1007.7
20260505075405 22 146 3.2 9.7 0.00 0.00 0.00 91 1007.7
20260505073905 21 113 4.8 11.3 0.00 0.00 0.00 91 1007.7
20260505071905 21 148 6.4 12.9 0.00 0.00 0.00 91 1007.9
20260505071405 21 138 3.2 8.0 0.00 0.00 0.00 91 1007.9
20260505070905 21 125 4.8 11.3 0.00 0.00 0.00 90 1008.1
20260505070405 21 168 4.8 11.3 0.00 0.00 0.00 90 1008.1
20260505065905 21 124 4.8 9.7 0.00 0.00 0.00 90 1008.2
20260505064406 21 120 3.2 8.0 0.00 0.00 0.00 90 1008.7
20260505063905 21 137 4.8 8.0 0.00 0.00 0.00 90 1008.7
20260505061405 21 173 3.2 8.0 0.00 0.00 0.00 89 1008.8
20260505060905 21 111 3.2 9.7 0.00 0.00 0.00 89 1008.8
20260505060406 21 154 3.2 9.7 0.00 0.00 0.00 89 1008.8
20260505054905 21 153 4.8 8.0 0.00 0.00 0.00 89 1009.1
20260505053905 21 150 3.2 9.7 0.00 0.00 0.00 89 1009.0
20260505051905 21 138 3.2 4.8 0.00 0.00 0.00 88 1009.1
20260505035905 21 143 3.2 8.0 0.00 0.00 0.00 85 1009.6
20260505034906 21 113 3.2 8.0 0.00 0.00 0.00 85 1009.6
20260505033405 21 145 3.2 9.7 0.00 0.00 0.00 85 1009.6
20260505031906 22 114 3.2 8.0 0.00 0.00 0.00 84 1009.7
20260505030905 22 163 4.8 9.7 0.00 0.00 0.00 83 1009.7
20260505025405 22 115 3.2 8.0 0.00 0.00 0.00 83 1009.6
20260505023905 22 163 4.8 9.7 0.00 0.00 0.00 82 1009.5
20260505022405 22 127 4.8 9.7 0.00 0.00 0.00 80 1009.6
20260505021405 23 160 8.0 11.3 0.00 0.00 0.00 80 1009.5
20260505020905 23 120 4.8 9.7 0.00 0.00 0.00 80 1009.4
20260505015905 23 131 4.8 14.5 0.00 0.00 0.00 80 1009.4
20260505014405 23 115 6.4 11.3 0.00 0.00 0.00 80 1009.3
20260505013906 23 161 9.7 16.1 0.00 0.00 0.00 80 1009.1
20260505012405 23 138 3.2 8.0 0.00 0.00 0.00 79 1009.4
20260505010906 23 139 4.8 12.9 0.00 0.00 0.00 78 1009.1
20260505005405 23 131 8.0 12.9 0.00 0.00 0.00 77 1009.0
20260505003905 23 122 8.0 14.5 0.00 0.00 0.00 76 1009.0
20260505003405 24 153 9.7 19.3 0.00 0.00 0.00 75 1009.0
20260505002405 24 123 11.3 24.1 0.00 0.00 0.00 73 1009.0
20260505001905 25 122 8.0 16.1 0.00 0.00 0.00 73 1009.0
20260505000905 25 122 9.7 24.1 0.00 0.00 0.00 73 1009.0
20260504235905 25 126 9.7 19.3 0.00 0.00 0.00 73 1009.2
20260504235405 25 152 11.3 19.3 0.00 0.00 0.00 73 1009.3
20260504234905 25 157 9.7 16.1 0.00 0.00 0.00 72 1009.3
20260504233905 25 127 8.0 20.9 0.00 0.00 0.00 72 1009.4
20260504233405 25 147 9.7 19.3 0.00 0.00 0.00 71 1009.3
20260504230405 25 115 9.7 16.1 0.00 0.00 0.00 71 1009.7
20260504225405 26 121 9.7 19.3 0.00 0.00 0.00 70 1009.7
20260504224905 26 108 8.0 19.3 0.00 0.00 0.00 70 1009.7
20260504224405 26 144 8.0 16.1 0.00 0.00 0.00 70 1009.7
20260504223905 26 98 11.3 19.3 0.00 0.00 0.00 69 1009.8
20260504222905 26 116 9.7 19.3 0.00 0.00 0.00 71 1010.0
20260504221406 25 131 9.7 14.5 0.00 0.00 0.00 71 1010.2
20260504215905 25 135 9.7 22.5 0.00 0.00 0.00 70 1010.3
20260504214905 26 147 9.7 19.3 0.00 0.00 0.00 69 1010.4
20260504214405 26 142 8.0 25.7 0.00 0.00 0.00 68 1010.5
20260504213905 27 153 11.3 19.3 0.00 0.00 0.00 67 1010.5
20260504213405 27 133 11.3 20.9 0.00 0.00 0.00 67 1010.5
20260504212905 27 106 11.3 20.9 0.00 0.00 0.00 67 1010.5
20260504212405 27 112 9.7 19.3 0.00 0.00 0.00 66 1010.5
20260504211905 27 108 11.3 19.3 0.00 0.00 0.00 65 1010.6
20260504210905 27 129 11.3 24.1 0.00 0.00 0.00 65 1010.7
20260504205405 27 111 9.7 19.3 0.00 0.00 0.00 64 1010.7
20260504204906 27 104 9.7 20.9 0.00 0.00 0.00 65 1010.7
20260504202905 27 137 9.7 19.3 0.00 0.00 0.00 63 1011.1
20260504201905 28 131 9.7 19.3 0.00 0.00 0.00 62 1011.2
20260504200904 28 122 8.0 16.1 0.00 0.00 0.00 64 1011.4
20260504194905 28 160 9.7 16.1 0.00 0.00 0.00 63 1011.5
20260504194405 28 164 8.0 16.1 0.00 0.00 0.00 64 1011.5
20260504192404 28 180 11.3 22.5 0.00 0.00 0.00 65 1011.8
20260504191905 28 166 9.7 16.1 0.00 0.00 0.00 64 1011.9
20260504190404 28 155 11.3 19.3 0.00 0.00 0.00 61 1012.0
20260504185905 28 135 9.7 19.3 0.00 0.00 0.00 62 1012.1
20260504184405 28 154 11.3 19.3 0.00 0.00 0.00 63 1012.1
20260504182905 28 186 9.7 22.5 0.00 0.00 0.00 63 1012.2
20260504182405 28 143 11.3 20.9 0.00 0.00 0.00 61 1012.6
20260504181405 28 184 11.3 16.1 0.00 0.00 0.00 62 1012.7
20260504174405 27 171 11.3 25.7 0.00 0.00 0.00 63 1012.9
20260504171905 27 169 9.7 19.3 0.00 0.00 0.00 64 1013.2
20260504160404 26 174 8.0 19.3 0.00 0.00 0.00 65 1014.2